Location: Newark
(43.0275°N, 0.5708°E)
Time: 06:15:04
(UTC+00:00)

OTV 5 (USA 277) - Visible Passes

Search period start: 23 October 2019 00:00
Search period end: 02 November 2019 00:00
Orbit: 310 x 324 km, 54.5° (Epoch: 17 October)

Date Brightness Start Highest point End Pass type
(mag) Time Alt. Az. Time Alt. Az. Time Alt. Az.
27 Oct ? 18:22:57 10° S 18:24:03 17° SSE 18:24:03 17° SSE visible
28 Oct ? 18:36:52 10° SW 18:38:41 36° SSW 18:38:41 36° SSW visible
29 Oct ? 18:51:29 10° WSW 18:53:10 30° W 18:53:10 30° W visible
30 Oct ? 17:31:54 10° SSW 17:34:26 36° SE 17:36:39 12° ENE visible
30 Oct ? 19:06:37 10° W 19:07:33 16° WNW 19:07:33 16° WNW visible
31 Oct ? 17:46:12 10° SW 17:48:55 75° NW 17:50:56 16° NE visible
01 Nov ? 18:01:05 10° W 18:03:33 30° NNW 18:05:08 17° NNE visible
